Location: Congrier
(47.8099°N, 1.1170°W)
Time: 13:03:03
(UTC+00:00)

SL-08 R/B - Pass Details

Date: 28 January 2023
Orbit: 947 x 992 km, 83.0° (Epoch: 23 March)

Event Time Altitude Azimuth Distance (km) Brightness Sun altitude
Rises 19:04:05 0° 353° (N) 3,662 7.5 -21.1°
Reaches altitude 10° 19:06:39 10° 358° (N) 2,718 6.8 -21.5°
Maximum altitude 19:12:47 57° 77° (ENE) 1,136 4.5 -22.5°
Enters shadow 19:17:37 17° 152° (SSE) 2,258 6.2 -23.3°
